This is the latest recevied weather packets stored in our database for station/object KE5OYL. If no packets are shown the sender has not sent any weather packets the latest 10 day(s).
| Time | Temp. | Humidity | Pressure | Rain* | Wind** | Luminosity | Snow |
|---|---|---|---|---|---|---|---|
| 1777749969 | 23.89° C | 32% | 1021.1 hPa | 0 mm | - | 788 W/m² | - |
| 1777749668 | 23.89° C | 30% | 1021.4 hPa | 0 mm | - | 788 W/m² | - |
| 1777749364 | 23.33° C | 31% | 1021.6 hPa | 0 mm | - | 794 W/m² | - |
| 1777749061 | 23.89° C | 31% | 1021.5 hPa | 0 mm | - | 805 W/m² | - |
| 1777748759 | 23.89° C | 31% | 1021.3 hPa | 0 mm | - | 805 W/m² | - |
| 1777748450 | 22.78° C | 32% | 1021.5 hPa | 0 mm | - | 807 W/m² | - |
| 1777748145 | 23.33° C | 32% | 1021.6 hPa | 0 mm | - | 813 W/m² | - |
| 1777747842 | 22.78° C | 32% | 1021.7 hPa | 0 mm | - | 818 W/m² | - |
| 1777747538 | 22.78° C | 34% | 1021.8 hPa | 0 mm | - | 822 W/m² | - |
| 1777747234 | 23.89° C | 31% | 1021.7 hPa | 0 mm | - | 823 W/m² | - |
| 1777746931 | 22.78° C | 32% | 1021.9 hPa | 0 mm | - | 826 W/m² | - |
| 1777746627 | 23.89° C | 33% | 1021.8 hPa | 0 mm | - | 826 W/m² | - |
| 1777746322 | 22.78° C | 32% | 1021.9 hPa | 0 mm | - | 825 W/m² | - |
| 1777746018 | 23.33° C | 33% | 1022 hPa | 0 mm | - | 824 W/m² | - |
| 1777745716 | 22.78° C | 35% | 1022 hPa | 0 mm | - | 827 W/m² | - |
| 1777745415 | 22.78° C | 33% | 1022 hPa | 0 mm | - | 826 W/m² | - |
| 1777745111 | 22.78° C | 34% | 1022.2 hPa | 0 mm | - | 818 W/m² | - |
| 1777744808 | 22.78° C | 34% | 1022.3 hPa | 0 mm | - | 818 W/m² | - |
| 1777744502 | 22.78° C | 33% | 1022.1 hPa | 0 mm | - | 815 W/m² | - |
| 1777744198 | 23.33° C | 32% | 1022.6 hPa | 0 mm | - | 809 W/m² | - |
| 1777743895 | 22.22° C | 34% | 1022.3 hPa | 0 mm | - | 804 W/m² | - |
| 1777743592 | 22.22° C | 34% | 1022.6 hPa | 0 mm | - | 800 W/m² | - |
| 1777743289 | 22.78° C | 35% | 1022.6 hPa | 0 mm | - | 793 W/m² | - |
| 1777742987 | 22.78° C | 35% | 1022.8 hPa | 0 mm | - | 788 W/m² | - |
| 1777742684 | 22.22° C | 35% | 1022.7 hPa | 0 mm | - | 788 W/m² | - |
* Rain latest hour (hover to see other rain measurements)
** Current wind speed in m/s (hover to see current wind gust speed)